Change the Weather History Date:

Sunday, May 25, 2014

  Actual Average Record
Temperature  
Mean Temperature 80 °F -  
Max Temperature 95 °F 83 °F 95 °F (1998)
Min Temperature 67 °F 62 °F 54 °F (2013)
Cooling Degree Days 15    
Growing Degree Days 30 (Base 50)    
Moisture  
Dew Point 65 °F    
Average Humidity 65    
Maximum Humidity 96    
Minimum Humidity 31    
Precipitation  
Precipitation 0.00 in - - ()
Sea Level Pressure  
Sea Level Pressure 30.09 in    
Wind  
Wind Speed 4 mph (ENE)    
Max Wind Speed 18 mph    
Max Gust Speed 24 mph    
Visibility 10 miles    
Events Rain , Thunderstorm    
Averages and records for this station are not official NWS values.
T = Trace of Precipitation, MM = Missing Value Source: NWS Daily Summary

Daily Weather History Graph

Daily Weather History Graph

Search for Another Location

Airport or City:

Trip Planner

Search our weather history database for the weather conditions in past years. The results will help you decide how hot, cold, wet, or windy it might be!

Date:

Astronomy

May. 25, 2014 Rise Set
Actual Time 5:41 AM CDT 7:38 PM CDT
Civil Twilight 5:14 AM CDT 8:05 PM CDT
Nautical Twilight 4:41 AM CDT 8:38 PM CDT
Astronomical Twilight 4:06 AM CDT 9:13 PM CDT
Moon 3:32 AM CDT (5/25) 4:49 PM CDT (5/25)
Length of Visible Light 14h 51m
Length of Day
13h 56m
Waning Crescent, 10% of the Moon is Illuminated
May 25
Waning Crescent
May 28
New
Jun 5
First Quarter
Jun 12
Full
Jun 19
Last Quarter

Hourly Weather History & Observations

Time (CDT) Temp. Heat Index Dew Point Humidity Pressure Visibility Wind Dir Wind Speed Gust Speed Precip Events Conditions
12:58 AM 71.2 °F - 68.9 °F 92% 30.08 in 10.0 mi NW 1.2 mph - N/A   Overcast
1:58 AM 72.7 °F - 70.0 °F 91% 30.07 in 10.0 mi NNW 2.3 mph - N/A   Mostly Cloudy
2:58 AM 71.2 °F - 69.1 °F 93% 30.06 in 10.0 mi Calm Calm - N/A   Partly Cloudy
3:58 AM 69.6 °F - 67.5 °F 93% 30.06 in 10.0 mi NNE 2.3 mph - N/A   Clear
4:58 AM 68.9 °F - 67.3 °F 95% 30.06 in 10.0 mi NNE 4.6 mph - N/A   Clear
5:58 AM 67.5 °F - 66.4 °F 96% 30.08 in 10.0 mi NNE 4.6 mph - N/A   Clear
6:58 AM 71.4 °F - 68.4 °F 90% 30.09 in 10.0 mi NNE 2.3 mph - N/A   Clear
7:58 AM 76.8 °F - 67.8 °F 74% 30.11 in 10.0 mi ENE 4.6 mph - N/A   Clear
8:58 AM 83.3 °F 85.9 °F 67.1 °F 58% 30.12 in 10.0 mi Variable 3.5 mph - N/A   Clear
9:58 AM 86.9 °F 90.3 °F 68.0 °F 53% 30.12 in 10.0 mi NE 2.3 mph - N/A   Clear
10:58 AM 88.2 °F 90.6 °F 66.2 °F 48% 30.11 in 10.0 mi ESE 5.8 mph - N/A   Clear
11:58 AM 91.4 °F 92.4 °F 63.5 °F 39% 30.10 in 10.0 mi SSE 4.6 mph - N/A   Clear
12:58 PM 92.1 °F 92.4 °F 61.7 °F 36% 30.09 in 10.0 mi Variable 3.5 mph - N/A   Partly Cloudy
1:58 PM 93.4 °F 93.5 °F 60.8 °F 34% 30.08 in 10.0 mi Variable 3.5 mph - N/A   Clear
2:58 PM 92.8 °F 92.4 °F 59.9 °F 33% 30.06 in 10.0 mi NNE 5.8 mph - N/A   Overcast
3:58 PM 93.2 °F 92.6 °F 59.4 °F 32% 30.03 in 10.0 mi ENE 6.9 mph - N/A   Clear
4:58 PM 93.4 °F 92.5 °F 58.1 °F 31% 30.03 in 10.0 mi Variable 2.3 mph - N/A   Clear
5:58 PM 84.6 °F 86.1 °F 64.4 °F 51% 30.07 in 10.0 mi SSW 18.4 mph 24.2 mph N/A   Mostly Cloudy
6:58 PM 81.0 °F 82.7 °F 64.8 °F 58% 30.09 in 10.0 mi East 11.5 mph - N/A   Mostly Cloudy
7:40 PM 78.8 °F - 62.6 °F 57% 30.11 in 10.0 mi East 11.5 mph - N/A Thunderstorm Thunderstorm
7:55 PM 77.0 °F - 62.6 °F 61% 30.12 in 10.0 mi ENE 9.2 mph - N/A   Clear
7:58 PM 76.6 °F - 63.0 °F 62% 30.12 in 10.0 mi ENE 8.1 mph - N/A   Clear
8:27 PM 75.2 °F - 62.6 °F 65% 30.11 in 10.0 mi ESE 8.1 mph - N/A Rain Light Rain
8:49 PM 73.4 °F - 64.4 °F 73% 30.10 in 10.0 mi SSE 5.8 mph - N/A   Partly Cloudy
8:58 PM 74.1 °F - 64.0 °F 71% 30.11 in 10.0 mi ENE 5.8 mph - 0.00 in   Partly Cloudy
9:58 PM 74.1 °F - 63.9 °F 70% 30.11 in 10.0 mi West 4.6 mph - N/A   Partly Cloudy
10:58 PM 70.3 °F - 64.6 °F 82% 30.10 in 10.0 mi WNW 3.5 mph - N/A   Partly Cloudy
11:58 PM 68.4 °F - 65.7 °F 91% 30.11 in 10.0 mi East 5.8 mph - N/A   Clear